contact:dominique.lefevre@mio.osupytheas.fr, maurice.libes@osupytheas.fr, didier.mallarino@osupytheas.fr
Project:EMSO http://www.emso-fr.org/EMSO-France
Depth: 2436.0 m
Title:EMSO Ligure Ouest : Data MII capteur OXYGEN
DateTime,Latitude,Longitude,Optode-Type,Optode_Serial,Oxygen,Saturation_Oxygen,Temperature
DateTime,Latitude,Longitude,Optode-Type,Optode_Serial,µmol.l-1,%,degC
2017-10-22T00:01:42,42.805,6.029,4330,1995,197.968,60.538,13.286
2017-10-22T00:04:42,42.805,6.029,4330,1995,198.052,60.564,13.286
2017-10-22T00:07:42,42.805,6.029,4330,1995,198.074,60.571,13.286
2017-10-22T00:10:42,42.805,6.029,4330,1995,198.065,60.568,13.285
2017-10-22T00:13:42,42.805,6.029,4330,1995,198.104,60.580,13.286
2017-10-22T00:16:42,42.805,6.029,4330,1995,198.075,60.571,13.286
2017-10-22T00:19:42,42.805,6.029,4330,1995,198.114,60.583,13.286
2017-10-22T00:22:42,42.805,6.029,4330,1995,198.134,60.589,13.286
2017-10-22T00:25:42,42.805,6.029,4330,1995,198.053,60.564,13.286
2017-10-22T00:28:42,42.805,6.029,4330,1995,198.038,60.560,13.286
2017-10-22T00:31:42,42.805,6.029,4330,1995,198.120,60.584,13.286
2017-10-22T00:34:42,42.805,6.029,4330,1995,198.215,60.614,13.286
2017-10-22T00:37:42,42.805,6.029,4330,1995,198.265,60.629,13.286
2017-10-22T00:40:42,42.805,6.029,4330,1995,198.330,60.649,13.286
2017-10-22T00:43:42,42.805,6.029,4330,1995,198.361,60.658,13.285
2017-10-22T00:46:42,42.805,6.029,4330,1995,198.361,60.658,13.286
2017-10-22T00:49:42,42.805,6.029,4330,1995,198.235,60.620,13.286
2017-10-22T00:52:42,42.805,6.029,4330,1995,198.072,60.570,13.286
2017-10-22T00:55:42,42.805,6.029,4330,1995,197.801,60.487,13.286
2017-10-22T00:58:42,42.805,6.029,4330,1995,197.662,60.445,13.286
2017-10-22T01:01:42,42.805,6.029,4330,1995,197.500,60.395,13.286
2017-10-22T01:04:42,42.805,6.029,4330,1995,197.599,60.425,13.286
2017-10-22T01:07:42,42.805,6.029,4330,1995,197.559,60.413,13.286
2017-10-22T01:10:42,42.805,6.029,4330,1995,197.365,60.354,13.286
2017-10-22T01:13:42,42.805,6.029,4330,1995,197.318,60.339,13.286
2017-10-22T01:16:42,42.805,6.029,4330,1995,197.312,60.338,13.286
2017-10-22T01:19:42,42.805,6.029,4330,1995,197.173,60.295,13.286
2017-10-22T01:22:42,42.805,6.029,4330,1995,197.288,60.330,13.285
2017-10-22T01:25:42,42.805,6.029,4330,1995,197.554,60.411,13.285
2017-10-22T01:28:42,42.805,6.029,4330,1995,197.440,60.377,13.286
2017-10-22T01:31:42,42.805,6.029,4330,1995,197.360,60.352,13.286
2017-10-22T01:34:42,42.805,6.029,4330,1995,197.170,60.294,13.286
2017-10-22T01:37:42,42.805,6.029,4330,1995,196.972,60.234,13.286
2017-10-22T01:40:42,42.805,6.029,4330,1995,196.922,60.218,13.286
2017-10-22T01:43:42,42.805,6.029,4330,1995,196.947,60.226,13.286
2017-10-22T01:46:42,42.805,6.029,4330,1995,196.754,60.167,13.286
2017-10-22T01:49:42,42.805,6.029,4330,1995,196.832,60.191,13.286
2017-10-22T01:52:42,42.805,6.029,4330,1995,196.660,60.139,13.286
2017-10-22T01:55:42,42.805,6.029,4330,1995,196.588,60.117,13.286
2017-10-22T01:58:42,42.805,6.029,4330,1995,196.403,60.060,13.286
2017-10-22T02:01:42,42.805,6.029,4330,1995,196.700,60.151,13.286
2017-10-22T02:04:42,42.805,6.029,4330,1995,196.622,60.127,13.286
2017-10-22T02:07:42,42.805,6.029,4330,1995,196.638,60.132,13.286
2017-10-22T02:10:42,42.805,6.029,4330,1995,196.779,60.175,13.286
2017-10-22T02:13:42,42.805,6.029,4330,1995,196.664,60.140,13.286
2017-10-22T02:16:42,42.805,6.029,4330,1995,196.579,60.114,13.286
2017-10-22T02:19:42,42.805,6.029,4330,1995,196.506,60.091,13.286
2017-10-22T02:22:42,42.805,6.029,4330,1995,196.677,60.144,13.286
2017-10-22T02:25:42,42.805,6.029,4330,1995,196.734,60.161,13.286
2017-10-22T02:28:42,42.805,6.029,4330,1995,196.552,60.106,13.286
2017-10-22T02:31:42,42.805,6.029,4330,1995,196.379,60.053,13.286
2017-10-22T02:34:42,42.805,6.029,4330,1995,196.635,60.131,13.286
2017-10-22T02:37:42,42.805,6.029,4330,1995,196.759,60.169,13.286
2017-10-22T02:40:42,42.805,6.029,4330,1995,196.604,60.122,13.286
2017-10-22T02:43:42,42.805,6.029,4330,1995,196.595,60.120,13.287
2017-10-22T02:46:42,42.805,6.029,4330,1995,196.208,60.001,13.287
2017-10-22T02:49:42,42.805,6.029,4330,1995,195.809,59.880,13.287
2017-10-22T02:52:42,42.805,6.029,4330,1995,195.395,59.753,13.287
2017-10-22T02:55:42,42.805,6.029,4330,1995,195.390,59.752,13.287
2017-10-22T02:58:42,42.805,6.029,4330,1995,195.318,59.730,13.287
2017-10-22T03:01:42,42.805,6.029,4330,1995,195.419,59.762,13.288
2017-10-22T03:04:42,42.805,6.029,4330,1995,195.012,59.637,13.287
2017-10-22T03:07:42,42.805,6.029,4330,1995,194.801,59.572,13.287
2017-10-22T03:10:42,42.805,6.029,4330,1995,194.859,59.590,13.288
2017-10-22T03:13:42,42.805,6.029,4330,1995,195.528,59.794,13.287
2017-10-22T03:16:42,42.805,6.029,4330,1995,195.778,59.871,13.288
2017-10-22T03:19:42,42.805,6.029,4330,1995,195.867,59.898,13.287
2017-10-22T03:22:42,42.805,6.029,4330,1995,195.828,59.886,13.287
2017-10-22T03:25:42,42.805,6.029,4330,1995,195.436,59.767,13.288
2017-10-22T03:28:42,42.805,6.029,4330,1995,195.303,59.727,13.288
2017-10-22T03:31:42,42.805,6.029,4330,1995,194.832,59.583,13.288
2017-10-22T03:34:42,42.805,6.029,4330,1995,194.028,59.339,13.290
2017-10-22T03:37:42,42.805,6.029,4330,1995,193.414,59.154,13.292
2017-10-22T03:40:42,42.805,6.029,4330,1995,193.109,59.059,13.291
2017-10-22T03:43:42,42.805,6.029,4330,1995,193.203,59.088,13.291
2017-10-22T03:46:42,42.805,6.029,4330,1995,193.058,59.040,13.288
2017-10-22T03:49:42,42.805,6.029,4330,1995,193.091,59.052,13.289
2017-10-22T03:52:42,42.805,6.029,4330,1995,192.949,59.013,13.293
2017-10-22T03:55:42,42.805,6.029,4330,1995,192.786,58.958,13.289
2017-10-22T03:58:42,42.805,6.029,4330,1995,192.866,58.981,13.288
2017-10-22T04:01:42,42.805,6.029,4330,1995,193.080,59.047,13.288
2017-10-22T04:04:42,42.805,6.029,4330,1995,193.288,59.111,13.289
2017-10-22T04:07:42,42.805,6.029,4330,1995,193.065,59.043,13.289
2017-10-22T04:10:42,42.805,6.029,4330,1995,192.889,58.990,13.290
2017-10-22T04:13:42,42.805,6.029,4330,1995,192.855,58.980,13.290
2017-10-22T04:16:42,42.805,6.029,4330,1995,192.561,58.892,13.292
2017-10-22T04:19:42,42.805,6.029,4330,1995,193.138,59.069,13.292
2017-10-22T04:22:42,42.805,6.029,4330,1995,193.057,59.047,13.294
2017-10-22T04:25:42,42.805,6.029,4330,1995,192.836,58.978,13.293
2017-10-22T04:28:42,42.805,6.029,4330,1995,192.577,58.901,13.295
2017-10-22T04:31:42,42.805,6.029,4330,1995,191.890,58.690,13.294
2017-10-22T04:34:42,42.805,6.029,4330,1995,191.341,58.521,13.293
2017-10-22T04:37:42,42.805,6.029,4330,1995,191.164,58.467,13.293
2017-10-22T04:40:42,42.805,6.029,4330,1995,191.141,58.461,13.294
2017-10-22T04:43:42,42.805,6.029,4330,1995,190.651,58.311,13.294
2017-10-22T04:46:42,42.805,6.029,4330,1995,190.500,58.263,13.292
2017-10-22T04:49:42,42.805,6.029,4330,1995,190.251,58.189,13.294
2017-10-22T04:52:42,42.805,6.029,4330,1995,190.236,58.183,13.293
2017-10-22T04:55:42,42.805,6.029,4330,1995,190.722,58.331,13.292
2017-10-22T04:58:42,42.805,6.029,4330,1995,191.051,58.432,13.293
2017-10-22T05:01:42,42.805,6.029,4330,1995,191.120,58.454,13.293
2017-10-22T05:04:42,42.805,6.029,4330,1995,190.857,58.374,13.293
2017-10-22T05:07:42,42.805,6.029,4330,1995,190.718,58.332,13.294
2017-10-22T05:10:42,42.805,6.029,4330,1995,190.983,58.412,13.293
2017-10-22T05:13:42,42.805,6.029,4330,1995,191.664,58.618,13.292
2017-10-22T05:16:42,42.805,6.029,4330,1995,192.487,58.869,13.291
2017-10-22T05:19:42,42.805,6.029,4330,1995,192.691,58.933,13.292
2017-10-22T05:22:42,42.805,6.029,4330,1995,192.270,58.802,13.290
2017-10-22T05:25:42,42.805,6.029,4330,1995,192.050,58.737,13.292
2017-10-22T05:28:42,42.805,6.029,4330,1995,192.362,58.831,13.291
2017-10-22T05:31:42,42.805,6.029,4330,1995,192.888,58.992,13.291
2017-10-22T05:34:42,42.805,6.029,4330,1995,192.287,58.807,13.290
2017-10-22T05:37:42,42.805,6.029,4330,1995,192.287,58.808,13.291
2017-10-22T05:40:42,42.805,6.029,4330,1995,192.503,58.874,13.291
2017-10-22T05:43:42,42.805,6.029,4330,1995,192.391,58.841,13.292
2017-10-22T05:46:42,42.805,6.029,4330,1995,192.688,58.929,13.290
2017-10-22T05:49:42,42.805,6.029,4330,1995,193.360,59.136,13.291
2017-10-22T05:52:42,42.805,6.029,4330,1995,193.467,59.169,13.291
2017-10-22T05:55:42,42.805,6.029,4330,1995,192.745,58.949,13.291
2017-10-22T05:58:42,42.805,6.029,4330,1995,193.140,59.068,13.290
2017-10-22T06:01:42,42.805,6.029,4330,1995,193.341,59.131,13.291
2017-10-22T06:04:42,42.805,6.029,4330,1995,194.001,59.329,13.289
2017-10-22T06:07:42,42.805,6.029,4330,1995,194.027,59.338,13.290
2017-10-22T06:10:42,42.805,6.029,4330,1995,194.099,59.362,13.291
2017-10-22T06:13:42,42.805,6.029,4330,1995,193.829,59.279,13.290
2017-10-22T06:16:42,42.805,6.029,4330,1995,194.262,59.410,13.289
2017-10-22T06:19:42,42.805,6.029,4330,1995,194.161,59.380,13.290
2017-10-22T06:22:42,42.805,6.029,4330,1995,193.834,59.279,13.289
2017-10-22T06:25:42,42.805,6.029,4330,1995,193.650,59.225,13.291
2017-10-22T06:28:42,42.805,6.029,4330,1995,193.650,59.224,13.290
2017-10-22T06:31:42,42.805,6.029,4330,1995,193.649,59.222,13.290
2017-10-22T06:34:42,42.805,6.029,4330,1995,193.162,59.076,13.292
2017-10-22T06:37:42,42.805,6.029,4330,1995,192.992,59.022,13.290
2017-10-22T06:40:42,42.805,6.029,4330,1995,192.977,59.020,13.291
2017-10-22T06:43:42,42.805,6.029,4330,1995,193.195,59.087,13.292
2017-10-22T06:46:42,42.805,6.029,4330,1995,193.484,59.174,13.291
2017-10-22T06:49:42,42.805,6.029,4330,1995,193.411,59.151,13.290
2017-10-22T06:52:42,42.805,6.029,4330,1995,193.165,59.076,13.290
2017-10-22T06:55:42,42.805,6.029,4330,1995,193.219,59.090,13.289
2017-10-22T06:58:42,42.805,6.029,4330,1995,193.920,59.305,13.289
2017-10-22T07:01:42,42.805,6.029,4330,1995,194.437,59.463,13.289
2017-10-22T07:04:42,42.805,6.029,4330,1995,194.285,59.418,13.291
2017-10-22T07:07:42,42.805,6.029,4330,1995,194.106,59.362,13.289
2017-10-22T07:10:42,42.805,6.029,4330,1995,194.266,59.412,13.290
2017-10-22T07:13:42,42.805,6.029,4330,1995,194.140,59.375,13.291
2017-10-22T07:16:42,42.805,6.029,4330,1995,193.332,59.128,13.292
2017-10-22T07:19:42,42.805,6.029,4330,1995,192.542,58.887,13.292
2017-10-22T07:22:42,42.805,6.029,4330,1995,192.454,58.860,13.292
2017-10-22T07:25:42,42.805,6.029,4330,1995,192.388,58.839,13.291
2017-10-22T07:28:42,42.805,6.029,4330,1995,192.929,59.003,13.290
2017-10-22T07:31:42,42.805,6.029,4330,1995,193.292,59.114,13.290
2017-10-22T07:34:42,42.805,6.029,4330,1995,193.384,59.143,13.291
2017-10-22T07:37:42,42.805,6.029,4330,1995,192.983,59.020,13.290
2017-10-22T07:40:42,42.805,6.029,4330,1995,192.532,58.885,13.292
2017-10-22T07:43:42,42.805,6.029,4330,1995,192.665,58.922,13.290
2017-10-22T07:46:42,42.805,6.029,4330,1995,193.037,59.036,13.290
2017-10-22T07:49:42,42.805,6.029,4330,1995,193.112,59.060,13.291
2017-10-22T07:52:42,42.805,6.029,4330,1995,193.494,59.176,13.290
2017-10-22T07:55:42,42.805,6.029,4330,1995,193.558,59.195,13.290
2017-10-22T07:58:42,42.805,6.029,4330,1995,193.873,59.292,13.290
2017-10-22T08:01:42,42.805,6.029,4330,1995,193.469,59.170,13.291
2017-10-22T08:04:42,42.805,6.029,4330,1995,193.458,59.166,13.291
2017-10-22T08:07:42,42.805,6.029,4330,1995,193.476,59.170,13.290
2017-10-22T08:10:42,42.805,6.029,4330,1995,193.378,59.141,13.290
2017-10-22T08:13:42,42.805,6.029,4330,1995,193.134,59.067,13.291
2017-10-22T08:16:42,42.805,6.029,4330,1995,192.864,58.987,13.293
2017-10-22T08:19:42,42.805,6.029,4330,1995,192.566,58.896,13.293
2017-10-22T08:22:42,42.805,6.029,4330,1995,192.295,58.811,13.291
2017-10-22T08:25:42,42.805,6.029,4330,1995,192.070,58.741,13.291
2017-10-22T08:28:42,42.805,6.029,4330,1995,192.126,58.758,13.290
2017-10-22T08:31:42,42.805,6.029,4330,1995,192.268,58.804,13.292
2017-10-22T08:34:42,42.805,6.029,4330,1995,192.106,58.752,13.291
2017-10-22T08:37:42,42.805,6.029,4330,1995,192.112,58.753,13.290
2017-10-22T08:40:42,42.805,6.029,4330,1995,192.300,58.811,13.290
2017-10-22T08:43:42,42.805,6.029,4330,1995,192.537,58.883,13.290
2017-10-22T08:46:42,42.805,6.029,4330,1995,192.412,58.846,13.291
2017-10-22T08:49:42,42.805,6.029,4330,1995,192.575,58.895,13.290
2017-10-22T08:52:42,42.805,6.029,4330,1995,192.492,58.872,13.292
2017-10-22T08:55:42,42.805,6.029,4330,1995,192.144,58.764,13.291
2017-10-22T08:58:42,42.805,6.029,4330,1995,191.571,58.589,13.291
2017-10-22T09:01:42,42.805,6.029,4330,1995,190.873,58.375,13.291
2017-10-22T09:04:42,42.805,6.029,4330,1995,190.324,58.208,13.291
2017-10-22T09:07:42,42.805,6.029,4330,1995,190.759,58.339,13.290
2017-10-22T09:10:42,42.805,6.029,4330,1995,191.451,58.551,13.290
2017-10-22T09:13:42,42.805,6.029,4330,1995,191.910,58.693,13.291
2017-10-22T09:16:42,42.805,6.029,4330,1995,191.586,58.591,13.289
2017-10-22T09:19:42,42.805,6.029,4330,1995,192.599,58.901,13.289
2017-10-22T09:22:42,42.805,6.029,4330,1995,193.033,59.035,13.290
2017-10-22T09:25:42,42.805,6.029,4330,1995,193.091,59.053,13.290
2017-10-22T09:28:42,42.805,6.029,4330,1995,193.428,59.154,13.289
2017-10-22T09:31:42,42.805,6.029,4330,1995,193.361,59.135,13.290
2017-10-22T09:34:42,42.805,6.029,4330,1995,193.272,59.108,13.290
2017-10-22T09:37:42,42.805,6.029,4330,1995,193.358,59.133,13.289
2017-10-22T09:40:42,42.805,6.029,4330,1995,193.507,59.178,13.289
2017-10-22T09:43:42,42.805,6.029,4330,1995,193.997,59.329,13.290
2017-10-22T09:46:42,42.805,6.029,4330,1995,194.149,59.374,13.289
2017-10-22T09:49:42,42.805,6.029,4330,1995,194.237,59.400,13.288
2017-10-22T09:52:42,42.805,6.029,4330,1995,194.600,59.513,13.289
2017-10-22T09:55:42,42.805,6.029,4330,1995,194.709,59.547,13.289
2017-10-22T09:58:42,42.805,6.029,4330,1995,194.555,59.499,13.289
2017-10-22T10:01:42,42.805,6.029,4330,1995,194.193,59.387,13.288
2017-10-22T10:04:42,42.805,6.029,4330,1995,193.835,59.279,13.289
2017-10-22T10:07:42,42.805,6.029,4330,1995,193.971,59.319,13.288
2017-10-22T10:10:42,42.805,6.029,4330,1995,194.860,59.592,13.289
2017-10-22T10:13:42,42.805,6.029,4330,1995,195.250,59.709,13.287
2017-10-22T10:16:42,42.805,6.029,4330,1995,195.181,59.690,13.289
2017-10-22T10:19:42,42.805,6.029,4330,1995,194.521,59.487,13.288
2017-10-22T10:22:42,42.805,6.029,4330,1995,195.653,59.833,13.288
2017-10-22T10:25:42,42.805,6.029,4330,1995,195.225,59.702,13.288
2017-10-22T10:28:42,42.805,6.029,4330,1995,194.676,59.534,13.288
2017-10-22T10:31:42,42.805,6.029,4330,1995,194.354,59.439,13.290
2017-10-22T10:34:42,42.805,6.029,4330,1995,193.794,59.267,13.289
2017-10-22T10:37:42,42.805,6.029,4330,1995,193.477,59.169,13.289
2017-10-22T10:40:42,42.805,6.029,4330,1995,193.716,59.243,13.289
2017-10-22T10:43:42,42.805,6.029,4330,1995,193.866,59.289,13.289
2017-10-22T10:46:42,42.805,6.029,4330,1995,193.764,59.256,13.288
2017-10-22T10:49:42,42.805,6.029,4330,1995,193.914,59.303,13.289
2017-10-22T10:52:42,42.805,6.029,4330,1995,193.858,59.286,13.289
2017-10-22T10:55:42,42.805,6.029,4330,1995,193.582,59.202,13.289
2017-10-22T10:58:42,42.805,6.029,4330,1995,193.720,59.242,13.288
2017-10-22T11:01:42,42.805,6.029,4330,1995,193.519,59.182,13.289
2017-10-22T11:04:42,42.805,6.029,4330,1995,193.266,59.105,13.289
2017-10-22T11:07:42,42.805,6.029,4330,1995,193.176,59.077,13.289
2017-10-22T11:10:42,42.805,6.029,4330,1995,192.970,59.014,13.289
2017-10-22T11:13:42,42.805,6.029,4330,1995,192.782,58.958,13.290
2017-10-22T11:16:42,42.805,6.029,4330,1995,193.011,59.026,13.288
2017-10-22T11:19:42,42.805,6.029,4330,1995,193.326,59.123,13.289
2017-10-22T11:22:42,42.805,6.029,4330,1995,192.940,59.006,13.290
2017-10-22T11:25:42,42.805,6.029,4330,1995,192.651,58.916,13.288
2017-10-22T11:28:42,42.805,6.029,4330,1995,192.252,58.795,13.289
2017-10-22T11:31:42,42.805,6.029,4330,1995,191.681,58.621,13.290
2017-10-22T11:34:42,42.805,6.029,4330,1995,191.196,58.474,13.291
2017-10-22T11:37:42,42.805,6.029,4330,1995,191.288,58.500,13.289
2017-10-22T11:40:42,42.805,6.029,4330,1995,192.651,58.916,13.289
2017-10-22T11:43:42,42.805,6.029,4330,1995,192.816,58.968,13.290
2017-10-22T11:46:42,42.805,6.029,4330,1995,192.779,58.956,13.289
2017-10-22T11:49:42,42.805,6.029,4330,1995,193.781,59.261,13.288
2017-10-22T11:52:42,42.805,6.029,4330,1995,193.868,59.288,13.288
2017-10-22T11:55:42,42.805,6.029,4330,1995,194.035,59.339,13.288
2017-10-22T11:58:42,42.805,6.029,4330,1995,194.491,59.479,13.288
2017-10-22T12:01:42,42.805,6.029,4330,1995,194.574,59.504,13.288
2017-10-22T12:04:42,42.805,6.029,4330,1995,194.472,59.473,13.289
2017-10-22T12:07:42,42.805,6.029,4330,1995,194.185,59.385,13.288
2017-10-22T12:10:42,42.805,6.029,4330,1995,193.768,59.257,13.288
2017-10-22T12:13:42,42.805,6.029,4330,1995,193.779,59.260,13.288
2017-10-22T12:16:42,42.805,6.029,4330,1995,194.154,59.375,13.288
2017-10-22T12:19:42,42.805,6.029,4330,1995,194.536,59.492,13.288
2017-10-22T12:22:42,42.805,6.029,4330,1995,194.604,59.513,13.288
2017-10-22T12:25:42,42.805,6.029,4330,1995,194.501,59.481,13.288
2017-10-22T12:28:42,42.805,6.029,4330,1995,194.212,59.393,13.288
2017-10-22T12:31:42,42.805,6.029,4330,1995,194.316,59.424,13.288
2017-10-22T12:34:42,42.805,6.029,4330,1995,194.290,59.416,13.288
2017-10-22T12:37:42,42.805,6.029,4330,1995,194.216,59.395,13.289
2017-10-22T12:40:42,42.805,6.029,4330,1995,194.131,59.369,13.289
2017-10-22T12:43:42,42.805,6.029,4330,1995,194.133,59.369,13.288
2017-10-22T12:46:42,42.805,6.029,4330,1995,193.637,59.217,13.288
2017-10-22T12:49:42,42.805,6.029,4330,1995,193.253,59.100,13.288
2017-10-22T12:52:42,42.805,6.029,4330,1995,193.392,59.142,13.288
2017-10-22T12:55:42,42.805,6.029,4330,1995,193.358,59.132,13.288
2017-10-22T12:58:42,42.805,6.029,4330,1995,193.216,59.088,13.288
2017-10-22T13:01:42,42.805,6.029,4330,1995,193.357,59.132,13.288
2017-10-22T13:04:42,42.805,6.029,4330,1995,193.331,59.124,13.289
2017-10-22T13:07:42,42.805,6.029,4330,1995,192.949,59.007,13.288
2017-10-22T13:10:42,42.805,6.029,4330,1995,193.089,59.049,13.288
2017-10-22T13:13:42,42.805,6.029,4330,1995,193.430,59.154,13.288
2017-10-22T13:16:42,42.805,6.029,4330,1995,193.547,59.189,13.288
2017-10-22T13:19:42,42.805,6.029,4330,1995,193.293,59.111,13.288
2017-10-22T13:22:42,42.805,6.029,4330,1995,193.280,59.108,13.288
2017-10-22T13:25:42,42.805,6.029,4330,1995,192.901,58.992,13.288
2017-10-22T13:28:42,42.805,6.029,4330,1995,193.107,59.054,13.288
2017-10-22T13:31:42,42.805,6.029,4330,1995,192.781,58.955,13.288
2017-10-22T13:34:42,42.805,6.029,4330,1995,192.670,58.920,13.287
2017-10-22T13:37:42,42.805,6.029,4330,1995,192.442,58.852,13.288
2017-10-22T13:40:42,42.805,6.029,4330,1995,192.685,58.925,13.288
2017-10-22T13:43:42,42.805,6.029,4330,1995,193.367,59.134,13.288
2017-10-22T13:46:42,42.805,6.029,4330,1995,193.613,59.208,13.287
2017-10-22T13:49:42,42.805,6.029,4330,1995,193.129,59.060,13.287
2017-10-22T13:52:42,42.805,6.029,4330,1995,192.709,58.932,13.287
2017-10-22T13:55:42,42.805,6.029,4330,1995,192.718,58.935,13.287
2017-10-22T13:58:42,42.805,6.029,4330,1995,192.885,58.985,13.287
2017-10-22T14:01:42,42.805,6.029,4330,1995,193.548,59.188,13.287
2017-10-22T14:04:42,42.805,6.029,4330,1995,194.090,59.354,13.287
2017-10-22T14:07:42,42.805,6.029,4330,1995,194.487,59.475,13.287
2017-10-22T14:10:42,42.805,6.029,4330,1995,194.720,59.546,13.287
2017-10-22T14:13:42,42.805,6.029,4330,1995,195.042,59.645,13.287
2017-10-22T14:16:42,42.805,6.029,4330,1995,195.437,59.765,13.286
2017-10-22T14:19:42,42.805,6.029,4330,1995,195.543,59.798,13.287
2017-10-22T14:22:42,42.805,6.029,4330,1995,195.693,59.844,13.287
2017-10-22T14:25:42,42.805,6.029,4330,1995,195.855,59.894,13.287
2017-10-22T14:28:42,42.805,6.029,4330,1995,195.746,59.860,13.287
2017-10-22T14:31:42,42.805,6.029,4330,1995,195.580,59.810,13.287
2017-10-22T14:34:42,42.805,6.029,4330,1995,195.412,59.758,13.287
2017-10-22T14:37:42,42.805,6.029,4330,1995,195.412,59.759,13.287
2017-10-22T14:40:42,42.805,6.029,4330,1995,195.525,59.793,13.287
2017-10-22T14:43:42,42.805,6.029,4330,1995,195.915,59.912,13.287
2017-10-22T14:46:41,42.805,6.029,4330,1995,196.009,59.942,13.287
2017-10-22T14:49:41,42.805,6.029,4330,1995,196.104,59.971,13.287
2017-10-22T14:52:41,42.805,6.029,4330,1995,196.277,60.023,13.287
2017-10-22T14:55:41,42.805,6.029,4330,1995,196.197,59.998,13.287
2017-10-22T14:58:41,42.805,6.029,4330,1995,196.334,60.040,13.287
2017-10-22T15:01:41,42.805,6.029,4330,1995,196.291,60.028,13.288
2017-10-22T15:04:41,42.805,6.029,4330,1995,196.412,60.063,13.286
2017-10-22T15:07:41,42.805,6.029,4330,1995,196.579,60.114,13.287
2017-10-22T15:10:41,42.805,6.029,4330,1995,196.707,60.154,13.286
2017-10-22T15:13:41,42.805,6.029,4330,1995,196.748,60.166,13.286
2017-10-22T15:16:41,42.805,6.029,4330,1995,196.568,60.111,13.286
2017-10-22T15:19:41,42.805,6.029,4330,1995,196.554,60.107,13.287
2017-10-22T15:22:41,42.805,6.029,4330,1995,196.487,60.086,13.286
2017-10-22T15:25:41,42.805,6.029,4330,1995,196.452,60.076,13.287
2017-10-22T15:28:41,42.805,6.029,4330,1995,196.411,60.064,13.287
2017-10-22T15:31:41,42.805,6.029,4330,1995,196.432,60.070,13.287
2017-10-22T15:34:41,42.805,6.029,4330,1995,196.405,60.061,13.286
2017-10-22T15:37:41,42.805,6.029,4330,1995,196.414,60.064,13.286
2017-10-22T15:40:41,42.805,6.029,4330,1995,196.144,59.981,13.286
2017-10-22T15:43:41,42.805,6.029,4330,1995,196.062,59.956,13.286
2017-10-22T15:46:41,42.805,6.029,4330,1995,196.126,59.976,13.286
2017-10-22T15:49:41,42.805,6.029,4330,1995,196.206,60.000,13.286
2017-10-22T15:52:41,42.805,6.029,4330,1995,196.401,60.059,13.286
2017-10-22T15:55:41,42.805,6.029,4330,1995,196.535,60.100,13.286
2017-10-22T15:58:41,42.805,6.029,4330,1995,196.534,60.100,13.286
2017-10-22T16:01:41,42.805,6.029,4330,1995,196.512,60.093,13.286
2017-10-22T16:04:41,42.805,6.029,4330,1995,196.477,60.082,13.286
2017-10-22T16:07:41,42.805,6.029,4330,1995,196.285,60.024,13.286
2017-10-22T16:10:41,42.805,6.029,4330,1995,196.101,59.968,13.286
2017-10-22T16:13:41,42.805,6.029,4330,1995,196.018,59.942,13.286
2017-10-22T16:16:41,42.805,6.029,4330,1995,196.024,59.944,13.286
2017-10-22T16:19:41,42.805,6.029,4330,1995,195.860,59.894,13.286
2017-10-22T16:22:41,42.805,6.029,4330,1995,195.765,59.865,13.286
2017-10-22T16:25:41,42.805,6.029,4330,1995,195.836,59.887,13.286
2017-10-22T16:28:41,42.805,6.029,4330,1995,195.951,59.922,13.286
2017-10-22T16:31:41,42.805,6.029,4330,1995,195.863,59.895,13.286
2017-10-22T16:34:41,42.805,6.029,4330,1995,195.938,59.918,13.286
2017-10-22T16:37:41,42.805,6.029,4330,1995,195.896,59.905,13.286
2017-10-22T16:40:41,42.805,6.029,4330,1995,196.168,59.988,13.286
2017-10-22T16:43:41,42.805,6.029,4330,1995,196.244,60.011,13.286
2017-10-22T16:46:41,42.805,6.029,4330,1995,196.233,60.008,13.286
2017-10-22T16:49:41,42.805,6.029,4330,1995,196.280,60.022,13.286
2017-10-22T16:52:41,42.805,6.029,4330,1995,196.242,60.011,13.286
2017-10-22T16:55:41,42.805,6.029,4330,1995,196.105,59.969,13.286
2017-10-22T16:58:41,42.805,6.029,4330,1995,195.948,59.921,13.286
2017-10-22T17:01:41,42.805,6.029,4330,1995,196.027,59.945,13.286
2017-10-22T17:04:41,42.805,6.029,4330,1995,195.891,59.903,13.286
2017-10-22T17:07:41,42.805,6.029,4330,1995,195.890,59.903,13.286
2017-10-22T17:10:41,42.805,6.029,4330,1995,195.776,59.868,13.286
2017-10-22T17:13:41,42.805,6.029,4330,1995,195.675,59.837,13.286
2017-10-22T17:16:41,42.805,6.029,4330,1995,195.589,59.811,13.286
2017-10-22T17:19:41,42.805,6.029,4330,1995,195.496,59.783,13.286
2017-10-22T17:22:41,42.805,6.029,4330,1995,195.333,59.733,13.286
2017-10-22T17:25:41,42.805,6.029,4330,1995,195.363,59.742,13.286
2017-10-22T17:28:41,42.805,6.029,4330,1995,195.440,59.765,13.286
2017-10-22T17:31:41,42.805,6.029,4330,1995,195.386,59.749,13.286
2017-10-22T17:34:41,42.805,6.029,4330,1995,195.257,59.710,13.286
2017-10-22T17:37:41,42.805,6.029,4330,1995,195.201,59.693,13.286
2017-10-22T17:40:41,42.805,6.029,4330,1995,195.040,59.644,13.286
2017-10-22T17:43:41,42.805,6.029,4330,1995,194.837,59.582,13.286
2017-10-22T17:46:41,42.805,6.029,4330,1995,194.971,59.622,13.286
2017-10-22T17:49:41,42.805,6.029,4330,1995,195.103,59.663,13.286
2017-10-22T17:52:41,42.805,6.029,4330,1995,195.234,59.703,13.286
2017-10-22T17:55:41,42.805,6.029,4330,1995,195.248,59.707,13.286
2017-10-22T17:58:41,42.805,6.029,4330,1995,195.202,59.693,13.286
2017-10-22T18:01:41,42.805,6.029,4330,1995,195.040,59.643,13.286
2017-10-22T18:04:41,42.805,6.029,4330,1995,195.320,59.729,13.286
2017-10-22T18:07:41,42.805,6.029,4330,1995,195.496,59.783,13.286